Regional Weather Roundup
Issued by NWS Albany, NY

Home | Current Version | Previous Version | Graphics & Text | Print | Product List | Glossary Off
Versions: 1 2 3 4 5 6 7 8 9 10 11 12 13 14 15 16 17 18 19 20 21 22 23 24 25 26 27

000
ASUS41 KALY 242310
RWRALY

NEW YORK STATE HOURLY WEATHER ROUNDUP
NATIONAL WEATHER SERVICE ALBANY NY
700 PM EDT TUE MAY 24 2016

NOTE: "FAIR" INDICATES FEW OR NO CLOUDS BELOW 12,000 FEET WITH NO
SIGNIFICANT WEATHER AND/OR NO OBSTRUCTIONS TO VISIBILITY.

NYZ032-033-038>043-046>054-057>066-NYZ062>081-082-084-250000-
EAST


CITY           SKY/WX    TMP DP  RH WIND       PRES   REMARKS
ALBANY         CLOUDY    63  55  75 CALM      29.93F
GLENS FALLS    CLOUDY    66  54  65 CALM      29.92S
POUGHKEEPSIE   CLOUDY    68  55  63 CALM      29.92R
NEWBURGH       CLOUDY    66  55  68 VRB6      29.95R
MONTGOMERY     CLOUDY    66  54  65 CALM      29.94R
WHITE PLAINS   PTSUNNY   64  55  72 SE3       29.94R
ISLIP          CLOUDY    64  60  87 CALM      29.92S
NEW YORK CITY  CLOUDY    70  54  56 CALM      29.92R
CENTRAL PARK   CLOUDY    69  49  48 CALM      29.95R
$$

NYZ005>009-017-018-044>046-055-056-250000-
CENTRAL


CITY           SKY/WX    TMP DP  RH WIND       PRES   REMARKS
FULTON         SUNNY     74  34  23 W8        29.94S
SYRACUSE       MOSUNNY   76  23  14 NW9       29.93R
ROME           SUNNY     74  29  19 W13       29.93R
ELMIRA         SUNNY     77  37  23 W9        29.96R
BINGHAMTON     SUNNY     73  38  27 NW10      29.97R
MONTICELLO     CLOUDY    66  54  63 SE6       29.98R
$$

NYZ026>034-041>043-087-250000-
NORTH


CITY           SKY/WX    TMP DP  RH WIND       PRES   REMARKS
WATERTOWN      SUNNY     68  35  29 SW8       29.92R
FORT DRUM      NOT AVBL
MASSENA        SUNNY     82  38  20 W9        29.85S
SARANAC LAKE   MOSUNNY   76  29  17 N7        29.90R
PLATTSBURGH    CLOUDY    72  53  51 S13       29.85S
$$

NYZ001>004-010>016-019>021-085-250000-
WEST


CITY           SKY/WX    TMP DP  RH WIND       PRES   REMARKS
NIAGARA FALLS  MOSUNNY   75  37  25 SW17G23   29.97R
BUFFALO        MOSUNNY   69  44  40 SW14      29.99S
DUNKIRK        SUNNY     73  37  27 SW12      30.01S
JAMESTOWN        N/A    N/A N/A N/A MISG        N/A
WELLSVILLE     SUNNY     72  34  24 NW12      30.05R
ROCHESTER      SUNNY     78  42  27 W15       29.96R
PENN YAN       SUNNY     78  39  24 NW5       29.97S
$$

             KEY
       WCI = WIND CHILL INDEX
       VSB = VISIBILITY
       HX  = HEAT INDEX
$$




USA.gov is the U.S. government's official web portal to all federal, state and local government web resources and services.